Weather History for Concord, NH

Change the Weather History Date:

Monday, September 9, 2013

  Actual Average Record
Temperature  
Mean Temperature 53 °F 63 °F  
Max Temperature 71 °F 75 °F 95 °F (2002)
Min Temperature 35 °F 50 °F 30 °F (1980)
Degree Days  
Heating Degree Days 12 4  
Month to date heating degree days 46 28  
Since 1 July heating degree days 76 76  
Cooling Degree Days 0 2  
Month to date cooling degree days 22 21  
Year to date cooling degree days 513 434  
Growing Degree Days 2 (Base 50)    
Moisture  
Dew Point 43 °F    
Average Humidity 69    
Maximum Humidity 100    
Minimum Humidity 37    
Precipitation  
Precipitation 0.00 in 0.10 in 1.36 in (1935)
Month to date precipitation 2.59 0.90  
Year to date precipitation 30.88 27.17  
Snow  
Snow 0.00 in 0.00 in 0.00 in (2002)
Month to date snowfall 0.0 0.0  
Since 1 July snowfall 0.0 0.0  
Since 1 September snowfall 0.0 0.0  
Snow Depth 0.00 in    
Sea Level Pressure  
Sea Level Pressure 30.17 in    
Wind  
Wind Speed 4 mph (South)    
Max Wind Speed 12 mph    
Max Gust Speed 15 mph    
Visibility 10 miles    
Events      
T = Trace of Precipitation, MM = Missing Value Source: NWS Daily Summary

Daily Weather History Graph

Daily Weather History Graph

Search for Another Location

Airport:

Trip Planner

Search our weather history database for the weather conditions in past years. The results will help you decide how hot, cold, wet, or windy it might be!

Date:

Astronomy

Sep. 09, 2013 Rise Set
Actual Time 6:19 AM EDT 7:06 PM EDT
Civil Twilight 5:50 AM EDT 7:35 PM EDT
Nautical Twilight 5:16 AM EDT 8:09 PM EDT
Astronomical Twilight 4:40 AM EDT 8:44 PM EDT
Moon 10:46 AM EDT (9/9) 9:11 PM EDT (9/9)
Length of Visible Light 13h 44m
Length of Day
12h 47m
Waxing Crescent, 19% of the Moon is Illuminated
Sep 9
Waxing Crescent
Sep 12
First Quarter
Sep 19
Full
Sep 26
Last Quarter
Oct 4
New

Hourly Weather History & Observations

Time (EDT) Temp. Windchill Dew Point Humidity Pressure Visibility Wind Dir Wind Speed Gust Speed Precip Events Conditions
12:51 AM 41.0 °F 38.0 °F 39.9 °F 96% 30.12 in 10.0 mi ESE 4.6 mph - N/A   Clear
1:51 AM 43.0 °F - 39.9 °F 89% 30.12 in 10.0 mi Calm Calm - N/A   Clear
2:51 AM 37.9 °F - 37.0 °F 97% 30.14 in 10.0 mi Calm Calm - N/A   Clear
3:51 AM 37.0 °F 33.3 °F 37.0 °F 100% 30.15 in 10.0 mi South 4.6 mph - N/A   Clear
4:51 AM 36.0 °F - 36.0 °F 100% 30.17 in 10.0 mi Calm Calm - N/A   Clear
5:51 AM 35.1 °F - 35.1 °F 100% 30.19 in 10.0 mi Calm Calm - N/A   Clear
6:51 AM 37.0 °F - 36.0 °F 96% 30.22 in 10.0 mi Calm Calm - N/A   Clear
7:51 AM 43.0 °F - 42.1 °F 97% 30.23 in 10.0 mi Calm Calm - N/A   Clear
8:51 AM 48.9 °F - 44.1 °F 83% 30.25 in 10.0 mi Calm Calm - N/A   Clear
9:51 AM 57.0 °F - 43.0 °F 59% 30.23 in 10.0 mi SW 3.5 mph - N/A   Clear
10:51 AM 61.0 °F - 39.9 °F 46% 30.22 in 10.0 mi Variable 5.8 mph - N/A   Clear
11:51 AM 64.0 °F - 39.0 °F 40% 30.20 in 10.0 mi SW 8.1 mph - N/A   Clear
12:51 PM 66.0 °F - 39.9 °F 38% 30.18 in 10.0 mi SW 6.9 mph - N/A   Clear
1:51 PM 68.0 °F - 41.0 °F 37% 30.16 in 10.0 mi Variable 4.6 mph - N/A   Clear
2:51 PM 70.0 °F - 43.0 °F 38% 30.15 in 10.0 mi South 6.9 mph - N/A   Clear
3:51 PM 68.0 °F - 45.0 °F 43% 30.15 in 10.0 mi SSW 9.2 mph - N/A   Clear
4:51 PM 66.9 °F - 45.0 °F 45% 30.14 in 10.0 mi SSW 10.4 mph - N/A   Clear
5:51 PM 66.0 °F - 48.0 °F 52% 30.13 in 10.0 mi South 4.6 mph - N/A   Clear
6:51 PM 60.1 °F - 48.0 °F 64% 30.13 in 10.0 mi South 3.5 mph - N/A   Clear
7:51 PM 57.9 °F - 48.0 °F 70% 30.13 in 10.0 mi Calm Calm - N/A   Clear
8:51 PM 57.9 °F - 48.0 °F 70% 30.15 in 10.0 mi SSE 3.5 mph - N/A   Clear
9:51 PM 55.9 °F - 48.0 °F 75% 30.13 in 10.0 mi SSE 3.5 mph - N/A   Clear
10:51 PM 55.0 °F - 48.0 °F 77% 30.13 in 10.0 mi South 5.8 mph - N/A   Clear
11:51 PM 53.1 °F - 48.0 °F 83% 30.13 in 10.0 mi SSE 6.9 mph - N/A   Clear